User: anonymous   Login
Location: Unspecified
(0.0000°N, 0.0000°E)
Time: 06:16:35
(UTC+00:00)
Language:

Oscar 18 - Orbit

View from above orbital plane
View from above orbital plane
View from above satellite
View from above satellite

Ground track
Ground track

The orbit data is extracted from the following two-line orbital elements,

1 20441U 90005F   18175.43375802 -.00000001 +00000-0 +15989-4 0  9997
2 20441 098.6283 115.6221 0012239 134.3750 338.6780 14.32772068484569
Epoch (UTC): 24 June 2018 10:24:36
Eccentricity: 0.0012239
inclination: 98.6283°
perigee height: 774 km
apogee height: 791 km
right ascension of ascending node: 115.6221°
argument of perigee: 134.3750°
revolutions per day: 14.32772068
mean anomaly at epoch: 338.6780°
orbit number at epoch: 48456

The dashed part of the orbit path shows where the satellite is in the earth's shadow,  

DLR